Location: Burland Observatory
(39.4088°N, 105.4217°W)
Time: 07:35:07
(UTC-07:00)

SR - Pass Details

Date: 15 December 2019
Orbit: 574 x 882 km, 66.7° (Epoch: 22 January)

Event Time Altitude Azimuth Distance (km) Brightness Sun altitude
Rises 08:50:36 0° 230° (SW) 3,250 ? 13.7°
Reaches altitude 10° 08:53:04 10° 238° (WSW) 2,371 ? 14.1°
Maximum altitude 08:58:13 40° 307° (NW) 1,225 ? 14.7°
Drops below altitude 10° 09:03:42 10° 16° (NNE) 2,518 ? 15.4°
Sets 09:06:25 0° 24° (NNE) 3,476 ? 15.8°
